map of MTH home
MTH - Airport
Location
City:  Marathon, Florida, United States
Name:The Florida Keys Marathon International Airport
ICAO:KMTH
IATA:MTH
FAA LID:MTH

Details
Type:Airport (Part 139 Class I)
Use:Public/Civil, International (customs landing rights)
Latitude:2443'34"N (24.726194)
Longitude:8103'05"W (-81.051360)
Datum:WGS 1984
Elevation:5 ft (2 m)
Variation:6.10W (WMM2015 magnetic declination)
-0.11 annual change
Runways:1
Longest:5008 × 100 ft (1526 × 30.5 m), paved

Time
Time Zone:UTC-5 (DST-4)
Local Time:

Weather
METAR:KMTH 181853Z AUTO 10012G18KT 10SM CLR 31/22 A3008 RMK AO2 SLP185 T03060217
TAF:KMTH 181737Z 1818/1918 08012G18KT P6SM FEW025

Related Locations
Nearby:
Farthest:CCK: 11557 mi / 18599 km
West Island (Pulau Panjang) [Cocos (Keeling) Islands], CC

Find:

   beyond  
but within

Other Information
Maps:
NOTAMs:
Links:
Sources:

  
  • flag of United States
  • flag of Florida
  • flag of Conch Republic
  

Sectional Chart

Flight Planning
at skyvector.com

Satellite Image

Google Maps Satellite view

 

Copyright © 2004-2018 Karl L. Swartz. All rights reserved.
The Great Circle Mapper name and logo are trademarks of the Great Circle Mapper.
All other trademarks mentioned herein belong to their respective owners.
Please see credits for attibutions and further copyright information.

  Follow gcmap on Facebook Follow gcmap on Twitter Follow gcmap on Google+ GCmap on LinkedIn

hCard Microformat

Geo Microformat